Location: Pescara
(42.4670°N, 14.2170°E)
Time: 02:08:55
(UTC+02:00)

ISS - Pass Details

Date: 20 May 2021
Orbit: 417 x 422 km, 51.6° (Epoch: 14 June)

Event Time Altitude Azimuth Distance (km) Brightness Sun altitude
Rises 22:55:48 0° 296° (WNW) 2,366 1.0 -21.2°
Reaches altitude 10° 22:58:26 10° 317° (NW) 1,503 0.2 -21.4°
Maximum altitude 23:00:44 17° 0° (N) 1,152 -0.8 -21.6°
Drops below altitude 10° 23:03:02 10° 43° (NE) 1,505 -0.8 -21.8°
Enters shadow 23:04:23 - 57° (ENE) 1,918 -0.4 -22.0°
